Location: Brno
(49.2000°N, 16.6330°E)
Time: 00:07:26
(UTC+02:00)

Meteor 1-4 Rocket - Visible Passes

Search period start: 24 April 2014 00:00
Search period end: 04 May 2014 00:00
Orbit: 472 x 540 km, 81.2° (Epoch: 22 April)

Date Brightness Start Highest point End Pass type
(mag) Time Alt. Az. Time Alt. Az. Time Alt. Az.
27 Apr 4.1 05:00:19 10° SSE 05:03:38 37° E 05:06:58 10° NNE visible
28 Apr 4.6 04:42:25 10° SSE 04:45:33 29° E 04:48:41 10° NNE visible
29 Apr 5.0 04:24:35 10° SE 04:27:27 23° E 04:30:19 10° NE visible
30 Apr 5.3 04:06:51 10° SE 04:09:20 18° E 04:11:51 10° NE visible
01 May 5.4 03:49:15 10° ESE 03:51:14 14° E 03:53:14 10° NE visible
02 May 5.6 03:31:59 10° ESE 03:33:08 11° E 03:34:17 10° ENE visible
03 May 2.5 04:46:27 10° SSW 04:50:01 76° WNW 04:53:37 10° N visible
